Location: Blackbird State Forest
(39.3478°N, 75.6771°W)
Time: 14:50:41
(UTC-04:00)

ARIANE 6 FM1 Upper Stage - Visible Passes

Search period start: 08 June 2026 00:00
Search period end: 18 June 2026 00:00
Orbit: 528 x 599 km, 62.0° (Epoch: 8 June)

Date Brightness Start Highest point End Pass type
(mag) Time Alt. Az. Time Alt. Az. Time Alt. Az.
8 Jun 4.7 02:09:13 20° E 02:09:13 20° E 02:11:21 10° ENE visible
8 Jun 3.6 03:45:10 25° W 03:46:54 37° NW 03:50:45 10° NNE visible
9 Jun 4.2 02:08:29 27° E 02:08:29 27° E 02:11:06 10° NE visible
9 Jun 4.2 03:44:26 19° W 03:46:21 26° NW 03:49:52 10° NNE visible
10 Jun 3.7 02:07:42 38° ENE 02:07:42 38° ENE 02:10:39 10° NE visible
10 Jun 4.7 03:43:38 14° W 03:45:49 20° NW 03:48:52 10° N visible
11 Jun 3.3 02:06:51 52° NE 02:06:51 52° NE 02:10:04 10° NE visible
11 Jun 5.1 03:42:57 10° WNW 03:45:21 15° NW 03:47:43 10° N visible
12 Jun 3.2 02:05:57 58° N 02:05:57 58° N 02:09:24 10° NNE visible
12 Jun 5.3 03:43:38 10° NW 03:44:54 11° NW 03:46:09 10° NNW visible
13 Jun 3.4 02:04:59 48° NNW 02:04:59 48° NNW 02:08:38 10° NNE visible
14 Jun 5.2 00:28:02 12° ENE 00:28:02 12° ENE 00:28:30 10° ENE visible
14 Jun 3.9 02:03:58 35° NW 02:03:59 35° NW 02:07:48 10° NNE visible
15 Jun 4.9 00:26:56 18° ENE 00:26:56 18° ENE 00:28:10 10° NE visible
15 Jun 4.4 02:02:52 24° WNW 02:03:23 25° NW 02:06:51 10° NNE visible
16 Jun 4.4 00:25:46 25° ENE 00:25:46 25° ENE 00:27:40 10° NE visible
16 Jun 4.9 02:01:41 17° WNW 02:02:50 19° NW 02:05:48 10° N visible
17 Jun 3.9 00:24:30 36° NE 00:24:30 36° NE 00:27:02 10° NE visible
17 Jun 5.3 02:00:24 11° WNW 02:02:20 14° NW 02:04:34 10° N visible
